Погода в Жаслыке

Погода в Жаслыке : погода сейчас, прогноз погоды и архив. Всё, что Вы хотите узнать о погоде в Жаслыке!

Хотите узнать прогноз погоды в Жаслыке? Тогда Вам сюда: Погода в Жаслыке

Поиск расширенной информации на нашем сайте:

Другие новости

Новости СМИ2

Главная страница сайта

Новости сайта

03.07.2017

Напоминаем, что на нашем специализированном сайте Метеоцентр.Азия вы можете получить высокодетализированные автоматические прогнозы погоды по пунктам России, СНГ и мира в авиационном формате (включающие направление и скорость ветра, видимость, явления погоды, количество и форму облачности, нижнюю и верхнюю границу облачности).


Погода в Жаслыке - сегодня

Время (UTC), дата Ветер
(°,м/с) 
Видим.   Явления Облачность Т
(°С)
Тd
(°С)
f(%) Тe
(°С)
Pmin
(гПа)
dP
(гПа)
Po
(мм)
O2
(г/м3)
Тmin Tmax R s Состояние
почвы
09 17.11.17 210 (ЮЗ) 20000 м    1/0 верхняя 
[Ci fib]
+12.5 +2.5 50 +14  1024.5  -1.2  757  291           
12 17.11.17 250 (З) 20000 м    ясно 
+13.3 +2.1 47 +14  1023.8  -0.6  756  290           
18 17.11.17 300 (СЗ) 10  20000 м    10/10 600 м 
[Sc]
+4.7 +2.7 87 +1  1025.7  757  300    +14       
21 17.11.17 340 (С) 12  20000 м    10/10 600 м 
[Sc]
+2 -2.3 73 -3  1027.4  1.5  758  304           
00 18.11.17 320 (СЗ) 20000 м    10/10 600 м 
[Sc]
-1.2 -4.1 81 -3  1029.5  1.8  760  308           
03 18.11.17 310 (СЗ) 20000 м    ясно 
-3.8 -5.3 89 -5  1030.9  1.3  761  311           
06 18.11.17 350 (С) 20000 м    ясно 
+1.7 -2.7 73 +1  1032.6  2.1  762  306  -4.1         
09 18.11.17 040 (СВ) 20000 м    ясно 
+5.7 -3.8 50 +5  1032.8  0.4  763  301           
12 18.11.17 080 (В) 20000 м    ясно 
+6.3 -4.6 46 +5  1033.6  0.7  763  301           
15 18.11.17 100 (В) 20000 м    ясно 
+0.8 -5.3 64 -1  1034.2  0.3  763  307    +6.8       
18 18.11.17 100 (В) 20000 м    ясно 
-2 -5.1 79 -5  1034.7  0.3  764  311    +6.8       
21 18.11.17 100 (В) 20000 м    ясно 
-2.8 -4.4 89 -6  1034.1  -0.5  763  311           
00 19.11.17 100 (В) 20000 м    ясно 
-4 -5.2 91 -6  1034.2  763  313           
03 19.11.17 110 (В) 20000 м    ясно 
-4.8 -6.1 91 -8  1033.7  -0.5  763  314           
06 19.11.17 120 (ЮВ) 10  20000 м    ясно 
+1.5 -2.9 72 -3  1033.4  0.1  763  306  -4.8         
09 19.11.17 120 (ЮВ) 13  20000 м    ясно 
+7 -6.7 37 +3  1030.9  -2.2  761  300           
12 19.11.17 110 (В) 12  20000 м    ясно 
+7.6 -9 30 +4  1029.8  -1.1  760  299           
15 19.11.17 100 (В) 20000 м    ясно 
+2.4 -7.1 49 -1  1029.5  -0.6  760  304    +8.4       
18 19.11.17 110 (В) 20000 м    ясно 
+0.5 -6.1 61 -3  1029  -0.7  759  306    +8.4       
21 19.11.17 110 (В) 20000 м    ясно 
-1.3 -6.4 68 -5  1028.6  -0.4  759  308           
00 20.11.17 110 (В) 20000 м    ясно 
-2.1 -5.6 77 -5  1027.1  -1.5  758  308           
06 20.11.17 110 (В) 20000 м    3/0 верхняя 
[Ci sp]
+2.5 -4.9 58 1025.1  -1.3  757  303  -3.7         
09 20.11.17 100 (В) 20000 м    1/0 средняя 
[Ac trans]
+8.5 -3.3 43 +7  1023.5  -1.2  756  296           
12 20.11.17 100 (В) 20000 м    3/0 верхняя 
[Ci sp]
+9.6 -5.2 35 +8  1022.6  -0.8  755  295           
18 20.11.17 110 (В) 20000 м    ясно 
+1.4 -4.5 65 1020.9  -0.6  754  303    +10       
Время (UTC), дата Ветер
(°,м/с) 
Видим.   Явления Облачность Т
(°С)
Тd
(°С)
f(%) Тe
(°С)
Pmin
(гПа)
dP
(гПа)
Po
(мм)
O2
(г/м3)
Тmin Tmax R s Состояние
почвы

Для получения пояснительной информации подведите курсор к названию столбца.

ПОГОДА в Жаслыке - архив

Всё, что Вы хотите узнать о погоде в Жаслыке - удобно и подробно!

Выберите нужную дату (начиная с 1 января 2015* года) и нажмите кнопку "Найти".
Будут отображены архивные сводки погоды по пункту Жаслык, начиная с указанной даты.


Отображать данные в формате CSV (для использования в таблицах Excel)


Внимание! Наш архив погоды предназначен исключительно для личного некоммерческого использования в познавательных целях. Если Вам необходимы официальные справки о состоянии погоды (для производственных, юридических, коммерческих и т.п. целей), обращайтесь в органы Росгидромета.

*Примечание: данная дата относится к архиву по метеостанциям СССР (Россия, СНГ, Балтия).
Архив по метеостанциям Зарубежной Европы и Азии (кроме Китая) хранится 10 дней, по другим регионам земного шара (Китай, Африка, Америка, Австралия, Океания) - 1 день.

Жаслык - район местоположения метеостанции


Название, широта, долгота, высота метеостанции:
Жаслык 43.9°ш. 57.5°д. 128 м над ур. моря [Узбекистан]

Дополнительная информация

В oтличие oт бoльшинства пoгoдных сайтoв мы публикуем пoдрoбную метеoинфoрмацию в детальнoм прoфессиoнальнoм фoрмате.

Характеристики температуры и влажнoсти вoздуха измеряются на высoте 2 м в тени вдали oт зданий и деревьев.
Скoрoсть ветра измеряется на высoте 10 м (на урoвне рoста челoвека скoрoсть ветра ниже в 1.5-2 раза). Если метеoстанция нахoдится в гoрoде или в лесу, тo скoрoсть ветра занижена на 2-4 м/с пo сравнению с oткрытым местoм. Скoрoсть ветра над акватoриями крупных рек и oзёр, а также на вершинах хoлмoв на 2-5 м/с выше, чем в oбычных услoвиях.
Атмoсфернoе давление в разных тoчках местнoсти мoжет значительнo oтличаться oт давления на метеoстанции, в зависимoсти oт услoвий рельефа (при пoдъёме на 10 м давление пoнижается примернo на 1 мм рт.ст.).